When you browse on this site, cookies collect data to enhance your experience and personalize the content and advertising you see.
Visit our Privacy Policy to learn more. By continuing to use the site, you agree to this use of cookies and data.
  • Em Portugal
  • Lista de países
  • Para 7 dias
  • Temperatura da água
  • Mapa do tempo
  • Widgets de tempo
  • user-avatar
    Iniciar Sessão

    Previsão horária em Krasnyy

    Hoje, 4 Junho, Quinta-feira

    Tempo Temperatura Precipitação Vento Pressão Humidade
    00:00 +15°C° 0.2 mm 5 m/s 740 mmHg 95%
    01:00 +15°C° 0.2 mm 4 m/s 740 mmHg 96%
    02:00 +16°C° 0.2 mm 3 m/s 740 mmHg 96%
    03:00 +16°C° 0 mm 3 m/s 740 mmHg 95%
    04:00 +16°C° 0 mm 3 m/s 740 mmHg 96%
    05:00 +14°C° 0 mm 3 m/s 740 mmHg 96%
    06:00 +15°C° 0 mm 2 m/s 740 mmHg 96%
    07:00 +16°C° 0 mm 2 m/s 740 mmHg 91%
    08:00 +17°C° 0 mm 2 m/s 740 mmHg 87%
    09:00 +17°C° 0 mm 2 m/s 740 mmHg 83%
    10:00 +19°C° 0 mm 2 m/s 740 mmHg 77%
    11:00 +20°C° 0 mm 2 m/s 741 mmHg 70%
    12:00 +21°C° 0 mm 3 m/s 741 mmHg 64%
    13:00 +21°C° 0 mm 3 m/s 741 mmHg 62%
    14:00 +22°C° 0 mm 3 m/s 741 mmHg 60%
    15:00 +22°C° 0 mm 3 m/s 741 mmHg 58%
    16:00 +22°C° 0 mm 3 m/s 742 mmHg 62%
    17:00 +21°C° 0 mm 3 m/s 742 mmHg 65%
    18:00 +21°C° 0 mm 4 m/s 742 mmHg 68%
    19:00 +19°C° 0 mm 3 m/s 742 mmHg 75%
    20:00 +17°C° 0 mm 3 m/s 743 mmHg 83%
    21:00 +15°C° 0 mm 2 m/s 743 mmHg 90%
    22:00 +14°C° 0 mm 2 m/s 744 mmHg 92%
    23:00 +14°C° 0 mm 2 m/s 744 mmHg 94%

    Amanhã, 5 Junho, Sexta-feira

    Tempo Temperatura Precipitação Vento Pressão Humidade
    00:00 +13°C° 0 mm 2 m/s 745 mmHg 96%
    01:00 +13°C° 0 mm 2 m/s 745 mmHg 96%
    02:00 +12°C° 0 mm 2 m/s 745 mmHg 96%
    03:00 +12°C° 0 mm 2 m/s 746 mmHg 96%
    04:00 +13°C° 0 mm 2 m/s 746 mmHg 93%
    05:00 +13°C° 0 mm 2 m/s 746 mmHg 90%
    06:00 +14°C° 0 mm 2 m/s 746 mmHg 87%
    07:00 +16°C° 0 mm 2 m/s 747 mmHg 80%
    08:00 +18°C° 0 mm 2 m/s 747 mmHg 72%
    09:00 +19°C° 0 mm 2 m/s 747 mmHg 64%
    10:00 +20°C° 0.1 mm 3 m/s 747 mmHg 62%
    11:00 +21°C° 0.1 mm 3 m/s 747 mmHg 61%
    12:00 +21°C° 0.1 mm 3 m/s 747 mmHg 60%
    13:00 +21°C° 0.4 mm 3 m/s 747 mmHg 61%
    14:00 +21°C° 0.4 mm 3 m/s 747 mmHg 62%
    15:00 +21°C° 0.4 mm 3 m/s 747 mmHg 63%
    16:00 +20°C° 0.4 mm 3 m/s 746 mmHg 68%
    17:00 +20°C° 0.4 mm 3 m/s 746 mmHg 73%
    18:00 +19°C° 0.4 mm 3 m/s 746 mmHg 78%
    19:00 +17°C° 0.3 mm 2 m/s 746 mmHg 83%
    20:00 +16°C° 0.3 mm 2 m/s 746 mmHg 88%
    21:00 +14°C° 0.3 mm 2 m/s 747 mmHg 93%
    22:00 +14°C° 0 mm 2 m/s 747 mmHg 93%
    23:00 +14°C° 0 mm 2 m/s 747 mmHg 94%

    Depois de amanhã, 6 Junho, Sábado

    Tempo Temperatura Precipitação Vento Pressão Humidade
    00:00 +13°C° 0 mm 1 m/s 747 mmHg 95%
    01:00 +13°C° 0.1 mm 2 m/s 747 mmHg 95%
    02:00 +13°C° 0.1 mm 2 m/s 747 mmHg 96%
    03:00 +13°C° 0.1 mm 2 m/s 748 mmHg 96%
    04:00 +13°C° 0 mm 2 m/s 748 mmHg 96%
    05:00 +13°C° 0 mm 2 m/s 748 mmHg 96%
    06:00 +14°C° 0 mm 2 m/s 748 mmHg 96%
    07:00 +14°C° 0 mm 3 m/s 748 mmHg 93%
    08:00 +16°C° 0 mm 3 m/s 748 mmHg 90%
    09:00 +16°C° 0 mm 3 m/s 748 mmHg 86%
    10:00 +17°C° 0.1 mm 3 m/s 748 mmHg 81%
    11:00 +19°C° 0.1 mm 3 m/s 749 mmHg 77%
    12:00 +20°C° 0.1 mm 3 m/s 749 mmHg 72%
    13:00 +20°C° 0.2 mm 3 m/s 749 mmHg 72%
    14:00 +21°C° 0.2 mm 3 m/s 749 mmHg 71%
    15:00 +22°C° 0.2 mm 3 m/s 749 mmHg 71%
    16:00 +23°C° 0.1 mm 2 m/s 749 mmHg 73%
    17:00 +23°C° 0.1 mm 2 m/s 748 mmHg 76%
    18:00 +23°C° 0.1 mm 2 m/s 748 mmHg 78%
    19:00 +20°C° 0.2 mm 2 m/s 749 mmHg 84%
    20:00 +19°C° 0.2 mm 2 m/s 749 mmHg 89%
    21:00 +18°C° 0.2 mm 2 m/s 749 mmHg 95%
    22:00 +17°C° 0 mm 2 m/s 749 mmHg 95%
    23:00 +17°C° 0 mm 2 m/s 750 mmHg 96%

    7 Junho, Domingo

    Tempo Temperatura Precipitação Vento Pressão Humidade
    00:00 +16°C° 0 mm 2 m/s 750 mmHg 96%
    01:00 +16°C° 0 mm 2 m/s 750 mmHg 96%
    02:00 +16°C° 0 mm 2 m/s 750 mmHg 96%
    03:00 +16°C° 0 mm 2 m/s 750 mmHg 96%
    04:00 +16°C° 0 mm 2 m/s 750 mmHg 96%
    05:00 +17°C° 0 mm 2 m/s 751 mmHg 95%
    06:00 +18°C° 0 mm 2 m/s 751 mmHg 95%
    07:00 +19°C° 0 mm 2 m/s 751 mmHg 90%
    08:00 +21°C° 0 mm 2 m/s 751 mmHg 84%
    09:00 +24°C° 0 mm 2 m/s 752 mmHg 79%
    10:00 +25°C° 0 mm 2 m/s 752 mmHg 72%
    11:00 +26°C° 0 mm 2 m/s 752 mmHg 65%
    12:00 +28°C° 0 mm 3 m/s 752 mmHg 58%
    13:00 +27°C° 0.6 mm 2 m/s 752 mmHg 62%
    14:00 +27°C° 0.6 mm 2 m/s 752 mmHg 66%
    15:00 +27°C° 0.6 mm 2 m/s 751 mmHg 70%
    16:00 +26°C° 1.3 mm 2 m/s 751 mmHg 75%
    17:00 +26°C° 1.3 mm 2 m/s 751 mmHg 80%
    18:00 +25°C° 1.3 mm 1 m/s 751 mmHg 85%
    19:00 +24°C° 0.9 mm 1 m/s 751 mmHg 87%
    20:00 +23°C° 0.9 mm 1 m/s 751 mmHg 89%
    21:00 +21°C° 0.9 mm 1 m/s 751 mmHg 92%
    22:00 +21°C° 0.1 mm 1 m/s 751 mmHg 93%
    23:00 +20°C° 0.1 mm 1 m/s 752 mmHg 94%

    8 Junho, Segunda-feira

    Tempo Temperatura Precipitação Vento Pressão Humidade
    00:00 +20°C° 0.1 mm 1 m/s 752 mmHg 95%
    01:00 +19°C° 0 mm 1 m/s 752 mmHg 95%
    02:00 +19°C° 0 mm 1 m/s 752 mmHg 96%
    03:00 +19°C° 0 mm 1 m/s 752 mmHg 96%
    04:00 +19°C° 0 mm 1 m/s 752 mmHg 95%
    05:00 +20°C° 0 mm 1 m/s 752 mmHg 94%
    06:00 +21°C° 0 mm 1 m/s 752 mmHg 93%
    07:00 +22°C° 0 mm 1 m/s 752 mmHg 86%
    08:00 +24°C° 0 mm 1 m/s 752 mmHg 79%
    09:00 +26°C° 0 mm 1 m/s 752 mmHg 72%
    10:00 +27°C° 0 mm 2 m/s 752 mmHg 66%
    11:00 +28°C° 0 mm 2 m/s 752 mmHg 61%
    12:00 +29°C° 0 mm 2 m/s 752 mmHg 55%
    13:00 +29°C° 0.2 mm 2 m/s 751 mmHg 55%
    14:00 +29°C° 0.2 mm 2 m/s 751 mmHg 56%
    15:00 +29°C° 0.2 mm 2 m/s 751 mmHg 56%
    16:00 +28°C° 0.5 mm 2 m/s 751 mmHg 62%
    17:00 +28°C° 0.5 mm 1 m/s 750 mmHg 67%
    18:00 +27°C° 0.5 mm 1 m/s 750 mmHg 73%
    19:00 +25°C° 0.3 mm 1 m/s 750 mmHg 79%
    20:00 +23°C° 0.3 mm 1 m/s 750 mmHg 85%
    21:00 +22°C° 0.3 mm 1 m/s 750 mmHg 90%
    22:00 +21°C° 0 mm 1 m/s 750 mmHg 91%
    23:00 +21°C° 0 mm 1 m/s 750 mmHg 92%

    9 Junho, Terça-feira

    Tempo Temperatura Precipitação Vento Pressão Humidade
    00:00 +18°C° 0 mm 0 m/s 750 mmHg 93%
    01:00 +18°C° 0 mm 0 m/s 750 mmHg 93%
    02:00 +17°C° 0 mm 0 m/s 751 mmHg 94%
    03:00 +17°C° 0 mm 0 m/s 751 mmHg 94%
    04:00 +20°C° 0 mm 1 m/s 751 mmHg 93%
    05:00 +20°C° 0 mm 1 m/s 751 mmHg 92%
    06:00 +21°C° 0 mm 1 m/s 751 mmHg 91%
    07:00 +23°C° 0 mm 1 m/s 751 mmHg 85%
    08:00 +24°C° 0 mm 1 m/s 751 mmHg 78%
    09:00 +26°C° 0 mm 2 m/s 751 mmHg 72%
    10:00 +27°C° 0.1 mm 2 m/s 751 mmHg 67%
    11:00 +28°C° 0.1 mm 2 m/s 751 mmHg 63%
    12:00 +29°C° 0.1 mm 2 m/s 752 mmHg 58%
    13:00 +28°C° 0.6 mm 3 m/s 751 mmHg 64%
    14:00 +27°C° 0.6 mm 3 m/s 751 mmHg 70%
    15:00 +27°C° 0.6 mm 3 m/s 751 mmHg 76%
    16:00 +26°C° 0.7 mm 2 m/s 751 mmHg 78%
    17:00 +26°C° 0.7 mm 2 m/s 751 mmHg 80%
    18:00 +26°C° 0.7 mm 1 m/s 751 mmHg 83%
    19:00 +24°C° 0.2 mm 2 m/s 751 mmHg 86%
    20:00 +23°C° 0.2 mm 2 m/s 751 mmHg 90%
    21:00 +20°C° 0.2 mm 2 m/s 751 mmHg 94%
    22:00 +19°C° 0 mm 2 m/s 751 mmHg 94%
    23:00 +20°C° 0 mm 1 m/s 751 mmHg 95%
    Mostrar mais